Simultaneous Nadir Overpasses (SNOs) Predictions

Prediction of SNOs between NOAA-20 and AQUA Satellite Orbit:

Table of predicted SNOs for the next 14.0 days since TLE Epoch: 4/3/2020
Index Date (NOAA-20) Time (NOAA-20) Lat,Lon (NOAA-20) SZA (NOAA-20 ) Date (AQUA) Time (AQUA) Lat,Lon (AQUA) SZA (AQUA ) Distance(km) Time Diff (sec)
1 04/05/2020 05:56:51 -75.74, 149.00 88.49 04/05/2020 05:57:19 -75.74, 148.97 88.51 0.80 28
2 04/05/2020 06:47:15 76.66, -40.45 90.37 04/05/2020 06:46:26 76.67, -40.43 90.41 0.36 49
3 04/07/2020 21:27:55 60.09, 74.73 106.95 04/07/2020 21:29:08 59.87, 75.97 106.64 73.24 73
4 04/07/2020 22:13:43 -75.89, -94.77 89.69 04/07/2020 22:13:45 -75.89, -94.71 89.70 1.85 2
5 04/07/2020 23:03:27 78.47, 83.80 86.94 04/07/2020 23:02:13 78.56, 83.52 87.02 12.40 74
6 04/10/2020 13:40:05 75.29,-148.20 90.04 04/10/2020 13:40:59 75.28,-148.21 90.00 0.40 54
7 04/10/2020 14:30:24 -76.52, 23.24 91.48 04/10/2020 14:30:01 -76.52, 23.17 91.44 2.05 23
8 04/13/2020 05:56:53 75.61, -31.43 88.66 04/13/2020 05:57:21 75.62, -31.39 88.63 1.22 28
9 04/13/2020 06:47:14 -76.75, 139.85 92.74 04/13/2020 06:46:25 -76.74, 139.83 92.69 0.74 49
10 04/15/2020 21:27:12 -62.55,-103.41 78.43 04/15/2020 21:28:25 -62.38,-102.26 78.73 62.19 73
11 04/15/2020 22:13:40 75.94, 85.38 87.31 04/15/2020 22:13:42 75.94, 85.45 87.29 2.11 2




NCC Satellite Simultaneous Nadir Overpasses (SNOs) Prediction Service
